CW1575 Weather Reports


Display with metric or nautical units.
time (UTC)temp
F
wind
direction
speed
MPH
gust
MPH
rain 1hr
in
rain 24hr
in
rain mn
in
humidity
%
barometer
mb
20150528115509 51 194 0.0 2.0 0.00 0.03 0.00 92 1014.8
20150528114510 51 193 1.0 3.0 0.00 0.03 0.00 92 1014.9
20150528113509 51 5 1.0 2.0 0.00 0.03 0.00 92 1014.8
20150528112509 51 5 0.0 2.0 0.00 0.03 0.00 93 1014.7
20150528111509 51 5 0.0 1.0 0.00 0.03 0.00 93 1014.5
20150528110510 51 5 0.0 2.0 0.00 0.03 0.00 93 1014.7
20150528105509 51 5 0.0 2.0 0.00 0.03 0.00 93 1014.6
20150528104509 51 5 0.0 1.0 0.00 0.03 0.00 93 1014.4
20150528103510 51 5 0.0 1.0 0.00 0.03 0.00 93 1014.6
20150528102511 51 5 0.0 1.0 0.00 0.03 0.00 92 1014.3
20150528101510 50 5 0.0 1.0 0.00 0.03 0.00 92 1014.0
20150528100509 50 5 1.0 2.0 0.00 0.03 0.00 91 1013.9
20150528095509 50 5 1.0 3.0 0.00 0.03 0.00 90 1014.0
20150528094511 49 336 1.0 3.0 0.00 0.03 0.00 87 1013.7
20150528093511 49 257 0.0 1.0 0.00 0.03 0.00 84 1013.6
20150528092509 50 257 1.0 1.0 0.00 0.03 0.00 84 1013.7
20150528091509 50 257 0.0 1.0 0.00 0.03 0.00 82 1013.5
20150528090510 50 257 0.0 1.0 0.00 0.03 0.00 82 1013.5
20150528085509 50 257 0.0 2.0 0.00 0.03 0.00 81 1013.5
20150528084509 51 257 0.0 1.0 0.00 0.03 0.00 80 1013.5
20150528083509 51 257 0.0 1.0 0.00 0.03 0.00 78 1013.6
20150528082510 51 257 1.0 2.0 0.00 0.03 0.00 77 1013.6
20150528081511 51 257 0.0 1.0 0.00 0.03 0.00 76 1013.6
20150528080510 51 257 0.0 1.0 0.00 0.03 0.00 77 1013.7
20150528075509 51 257 0.0 2.0 0.00 0.03 0.00 76 1013.9
20150528074509 51 307 2.0 9.0 0.00 0.03 0.00 75 1013.9
20150528073509 52 303 2.0 3.0 0.00 0.03 0.00 80 1013.7
20150528072510 52 224 1.0 3.0 0.00 0.03 0.00 80 1013.7
20150528071510 52 252 0.0 1.0 0.00 0.03 0.00 80 1013.7
20150528070509 53 252 0.0 2.0 0.00 0.03 0.00 81 1013.7
20150528065510 53 252 0.0 1.0 0.00 0.03 0.00 81 1013.7
20150528064509 53 252 1.0 2.0 0.00 0.03 0.00 81 1013.9
20150528063509 54 252 0.0 1.0 0.00 0.03 0.00 80 1013.9
20150528062510 54 252 0.0 0.0 0.00 0.03 0.00 80 1013.7
20150528061509 55 252 0.0 1.0 0.00 0.03 0.00 79 1013.8
20150528060509 55 252 0.0 1.0 0.00 0.03 0.00 78 1013.8
20150528055510 55 252 0.0 0.0 0.00 0.03 0.03 76 1013.9
20150528054510 56 252 0.0 1.0 0.00 0.03 0.03 76 1014.0
20150528053509 56 252 0.0 3.0 0.01 0.03 0.03 77 1014.2
20150528052509 57 231 1.0 3.0 0.03 0.03 0.03 78 1014.3
20150528051509 58 225 2.0 3.0 0.03 0.03 0.03 77 1014.3
20150528050510 58 301 0.0 2.0 0.03 0.03 0.03 73 1014.1
20150528045510 59 301 1.0 2.0 0.03 0.03 0.03 69 1014.1
20150528044511 60 301 1.0 9.0 0.03 0.03 0.03 67 1014.1
20150528043509 60 82 5.0 17.0 0.02 0.02 0.02 58 1014.6
20150528042510 61 229 5.0 13.0 0.00 0.00 0.00 60 1014.4
20150528041509 62 197 9.0 15.0 0.00 0.00 0.00 57 1014.7
20150528040513 63 210 7.0 17.0 0.00 0.00 0.00 55 1014.5
20150528035518 64 254 5.0 13.0 0.00 0.00 0.00 53 1014.2
20150528034509 64 170 2.0 5.0 0.00 0.00 0.00 49 1013.7
20150528033510 64 155 1.0 9.0 0.00 0.00 0.00 50 1013.6
20150528032524 64 220 1.0 6.0 0.00 0.00 0.00 50 1013.4
20150528031511 64 126 2.0 5.0 0.00 0.00 0.00 50 1013.1
20150528030509 65 107 0.0 3.0 0.00 0.00 0.00 49 1013.1
20150528025511 65 11 1.0 2.0 0.00 0.00 0.00 49 1012.8
20150528024509 66 10 0.0 3.0 0.00 0.00 0.00 50 1012.8
20150528023513 66 38 1.0 3.0 0.00 0.00 0.00 50 1012.7
20150528022510 67 289 1.0 8.0 0.00 0.00 0.00 47 1013.0
20150528021509 67 177 6.0 13.0 0.00 0.00 0.00 45 1013.0
20150528020510 67 137 0.0 2.0 0.00 0.00 0.00 45 1013.0
20150528015509 67 139 0.0 2.0 0.00 0.00 0.00 45 1012.9
20150528014509 68 139 2.0 3.0 0.00 0.00 0.00 43 1012.8
20150528013509 68 115 1.0 6.0 0.00 0.00 0.00 42 1012.8
20150528012510 68 111 1.0 7.0 0.00 0.00 0.00 42 1012.7
20150528011510 68 119 2.0 7.0 0.00 0.00 0.00 42 1012.7
20150528010509 68 104 2.0 7.0 0.00 0.00 0.00 42 1012.5
20150528005510 69 54 2.0 8.0 0.00 0.00 0.00 42 1012.2
20150528004509 70 90 6.0 13.0 0.00 0.00 0.00 40 1012.0
20150528003511 73 80 6.0 14.0 0.00 0.00 0.00 37 1011.9
20150528002511 74 102 4.0 12.0 0.00 0.00 0.00 35 1011.8
20150528001509 74 130 2.0 7.0 0.00 0.00 0.00 33 1011.7
20150528000509 74 359 6.0 12.0 0.00 0.00 0.00 43 1011.8
20150527235509 73 342 2.0 9.0 0.00 0.00 0.00 35 1012.0
20150527234510 73 335 2.0 5.0 0.00 0.00 0.00 32 1012.1
20150527233509 73 306 2.0 3.0 0.00 0.00 0.00 34 1012.2
20150527232510 73 24 1.0 2.0 0.00 0.00 0.00 34 1012.1
20150527231510 74 26 1.0 5.0 0.00 0.00 0.00 31 1012.1
20150527230509 74 46 2.0 9.0 0.00 0.00 0.00 34 1012.0
20150527225509 75 148 6.0 18.0 0.00 0.00 0.00 32 1012.2
20150527224510 77 93 3.0 8.0 0.00 0.00 0.00 28 1012.0
20150527223510 79 17 5.0 12.0 0.00 0.00 0.00 29 1012.0
20150527222509 80 47 2.0 8.0 0.00 0.00 0.00 29 1011.9
20150527221510 80 11 5.0 12.0 0.00 0.00 0.00 30 1012.0
20150527220509 79 20 2.0 7.0 0.00 0.00 0.00 32 1012.2
20150527215509 79 27 2.0 7.0 0.00 0.00 0.00 28 1012.4
20150527214509 79 63 1.0 10.0 0.00 0.00 0.00 31 1012.6
20150527213510 79 44 2.0 5.0 0.00 0.00 0.00 30 1012.7
20150527212509 78 125 3.0 7.0 0.00 0.00 0.00 29 1012.8
20150527211510 78 146 1.0 5.0 0.00 0.00 0.00 28 1012.9
20150527210509 78 19 2.0 12.0 0.00 0.00 0.00 31 1012.9
20150527205510 78 37 4.0 10.0 0.00 0.00 0.00 31 1013.3
20150527204510 78 356 1.0 9.0 0.00 0.00 0.00 29 1013.3
20150527203509 76 27 3.0 8.0 0.00 0.00 0.00 35 1013.3
20150527202510 76 12 2.0 7.0 0.00 0.00 0.00 31 1013.4
20150527201510 76 320 3.0 12.0 0.00 0.00 0.00 31 1013.5
20150527200509 76 59 1.0 3.0 0.00 0.00 0.00 30 1013.6
20150527195510 76 123 1.0 10.0 0.00 0.00 0.00 28 1014.0
20150527194510 76 2 6.0 10.0 0.00 0.00 0.00 29 1014.1
20150527193509 77 66 2.0 9.0 0.00 0.00 0.00 31 1014.1
20150527192511 76 36 3.0 8.0 0.00 0.00 0.00 34 1014.2
20150527191510 76 20 1.0 6.0 0.00 0.00 0.00 32 1014.3
20150527190511 77 5 2.0 12.0 0.00 0.00 0.00 28 1014.4
20150527185509 78 12 4.0 9.0 0.00 0.00 0.00 33 1014.6
20150527184509 78 100 3.0 9.0 0.00 0.00 0.00 28 1014.6
20150527183509 77 26 7.0 12.0 0.00 0.00 0.00 30 1014.7
20150527181510 77 81 2.0 8.0 0.00 0.00 0.00 31 1014.8
20150527180510 76 9 3.0 12.0 0.00 0.00 0.00 35 1015.0
20150527175510 76 13 2.0 10.0 0.00 0.00 0.00 33 1015.2
20150527174509 75 13 5.0 10.0 0.00 0.00 0.00 36 1015.4
20150527173511 75 15 5.0 10.0 0.00 0.00 0.00 34 1015.4
20150527172510 74 314 2.0 8.0 0.00 0.00 0.00 36 1015.5
20150527171509 75 328 2.0 8.0 0.00 0.00 0.00 36 1015.4
20150527170523 74 0 3.0 8.0 0.00 0.00 0.00 39 1015.5
20150527165518 73 44 5.0 9.0 0.00 0.00 0.00 41 1015.6
20150527164510 72 59 2.0 8.0 0.00 0.00 0.00 40 1015.6
20150527163509 71 22 1.0 7.0 0.00 0.00 0.00 42 1015.7
20150527162519 70 19 2.0 8.0 0.00 0.00 0.00 41 1015.6
20150527161509 69 82 2.0 5.0 0.00 0.00 0.00 42 1015.8
20150527160509 68 112 2.0 6.0 0.00 0.00 0.00 41 1015.9
20150527155509 67 29 2.0 5.0 0.00 0.00 0.00 42 1016.0
20150527154509 66 5 1.0 3.0 0.00 0.00 0.00 47 1016.0
20150527153509 65 120 2.0 3.0 0.00 0.00 0.00 45 1016.1
20150527152510 64 297 1.0 3.0 0.00 0.00 0.00 48 1016.2
20150527151509 63 338 1.0 3.0 0.00 0.00 0.00 52 1016.2
20150527150509 62 57 1.0 2.0 0.00 0.00 0.00 52 1016.3
20150527145509 61 58 1.0 3.0 0.00 0.00 0.00 53 1016.4
20150527144510 60 57 1.0 3.0 0.00 0.00 0.00 56 1016.5
20150527143510 58 82 2.0 5.0 0.00 0.00 0.00 57 1016.4
20150527142510 57 132 1.0 3.0 0.00 0.00 0.00 62 1016.4
20150527141509 55 115 1.0 3.0 0.00 0.00 0.00 66 1016.6
20150527140509 52 144 1.0 2.0 0.00 0.00 0.00 71 1016.7
20150527135510 50 194 1.0 2.0 0.00 0.00 0.00 75 1016.6
20150527134509 49 194 1.0 2.0 0.00 0.00 0.00 80 1016.5
20150527133510 47 193 1.0 3.0 0.00 0.00 0.00 82 1016.3
20150527132509 46 193 0.0 1.0 0.00 0.00 0.00 85 1016.4
20150527131509 45 193 1.0 3.0 0.00 0.00 0.00 88 1016.4
20150527130509 44 154 0.0 2.0 0.00 0.00 0.00 90 1016.5
20150527125510 44 154 0.0 3.0 0.00 0.00 0.00 91 1016.5
20150527124509 44 311 1.0 2.0 0.00 0.00 0.00 91 1016.4
20150527123518 44 311 1.0 3.0 0.00 0.00 0.00 92 1016.3
20150527122510 44 311 1.0 2.0 0.00 0.00 0.00 91 1016.4
20150527121509 44 311 0.0 2.0 0.00 0.00 0.00 91 1016.2
20150527120513 44 311 0.0 1.0 0.00 0.00 0.00 90 1016.3